Wetterdaten: Mittwoch, 05.03.2014
Datum Zeit Temperatur Luftfeuchte Luftdruck Regen Wind Richtung Richtung Taupunkt Windchill Windben
05.03.2014 00:00 1,6 C 96 % 1008,8 hPa 0,0 l/m 5,6 km/h (1 Bft) O-NO 67 1,0 C 0,1 C 4,8 km/h (1 Bft)
05.03.2014 00:05 1,6 C 96 % 1008,8 hPa 0,0 l/m 5,5 km/h (1 Bft) O-SO 112 1,0 C 0,2 C 4,2 km/h (1 Bft)
05.03.2014 00:10 1,6 C 96 % 1008,9 hPa 0,0 l/m 4,8 km/h (1 Bft) S 180 1,0 C 0,4 C 5,8 km/h (2 Bft)
05.03.2014 00:15 1,6 C 96 % 1008,9 hPa 0,0 l/m 4,5 km/h (1 Bft) S 180 1,0 C 0,6 C 5,3 km/h (1 Bft)
05.03.2014 00:20 1,6 C 96 % 1008,9 hPa 0,0 l/m 3,4 km/h (1 Bft) S-SW 202 1,0 C 1,3 C 1,8 km/h (1 Bft)
05.03.2014 00:25 1,5 C 96 % 1008,9 hPa 0,0 l/m 2,1 km/h (1 Bft) S-SO 157 0,9 C 1,8 C 0,0 km/h (0 Bft)
05.03.2014 00:30 1,5 C 96 % 1009,2 hPa 0,0 l/m 0,5 km/h (0 Bft) S 180 0,9 C 1,7 C 3,5 km/h (1 Bft)
05.03.2014 00:35 1,5 C 96 % 1009,2 hPa 0,0 l/m 2,1 km/h (1 Bft) O-SO 112 0,9 C 1,8 C 4,3 km/h (1 Bft)
05.03.2014 00:40 1,6 C 96 % 1009,2 hPa 0,0 l/m 4,0 km/h (1 Bft) O 90 1,0 C 0,9 C 7,4 km/h (2 Bft)
05.03.2014 00:45 1,6 C 96 % 1009,2 hPa 0,0 l/m 3,9 km/h (1 Bft) O 90 1,0 C 1,0 C 6,1 km/h (2 Bft)
05.03.2014 00:50 1,7 C 96 % 1009,1 hPa 0,0 l/m 4,5 km/h (1 Bft) O-SO 112 1,1 C 0,8 C 8,2 km/h (2 Bft)
05.03.2014 00:55 1,8 C 96 % 1009,1 hPa 0,0 l/m 5,6 km/h (1 Bft) O-NO 67 1,2 C 0,3 C 7,2 km/h (2 Bft)
05.03.2014 01:00 1,8 C 96 % 1009,1 hPa 0,0 l/m 5,3 km/h (1 Bft) S-SO 157 1,2 C 0,6 C 12,6 km/h (3 Bft)
05.03.2014 01:05 1,8 C 96 % 1009,1 hPa 0,0 l/m 3,7 km/h (1 Bft) S 180 1,2 C 1,3 C 4,3 km/h (1 Bft)
05.03.2014 01:10 1,7 C 96 % 1009,5 hPa 0,0 l/m 2,4 km/h (1 Bft) S-SW 202 1,1 C 2,0 C 0,0 km/h (0 Bft)
05.03.2014 01:15 1,7 C 96 % 1009,5 hPa 0,0 l/m 2,3 km/h (1 Bft) O-SO 112 1,1 C 2,0 C 1,9 km/h (1 Bft)
05.03.2014 01:20 1,8 C 96 % 1009,5 hPa 0,0 l/m 2,6 km/h (1 Bft) O 90 1,2 C 2,0 C 7,6 km/h (2 Bft)
05.03.2014 01:25 1,8 C 96 % 1009,5 hPa 0,0 l/m 4,0 km/h (1 Bft) NO 45 1,2 C 1,1 C 7,4 km/h (2 Bft)
05.03.2014 01:30 1,9 C 96 % 1009,6 hPa 0,0 l/m 5,3 km/h (1 Bft) SO 135 1,3 C 0,6 C 6,8 km/h (2 Bft)
05.03.2014 01:35 1,9 C 96 % 1009,6 hPa 0,0 l/m 5,3 km/h (1 Bft) O-SO 112 1,3 C 0,6 C 7,6 km/h (2 Bft)
05.03.2014 01:40 1,9 C 96 % 1009,6 hPa 0,0 l/m 5,3 km/h (1 Bft) SO 135 1,3 C 0,7 C 7,1 km/h (2 Bft)
05.03.2014 01:45 1,9 C 96 % 1009,6 hPa 0,0 l/m 5,1 km/h (1 Bft) O 90 1,3 C 0,7 C 7,1 km/h (2 Bft)
05.03.2014 01:50 2,0 C 96 % 1009,8 hPa 0,0 l/m 5,1 km/h (1 Bft) O 90 1,4 C 0,9 C 6,8 km/h (2 Bft)
05.03.2014 01:55 2,0 C 96 % 1009,8 hPa 0,0 l/m 5,5 km/h (1 Bft) S 180 1,4 C 0,7 C 4,8 km/h (1 Bft)
05.03.2014 02:00 1,9 C 96 % 1009,8 hPa 0,0 l/m 4,8 km/h (1 Bft) W 270 1,3 C 1,1 C 2,6 km/h (1 Bft)
05.03.2014 02:05 2,0 C 95 % 1009,8 hPa 0,0 l/m 4,5 km/h (1 Bft) SO 135 1,3 C 1,2 C 5,8 km/h (2 Bft)
05.03.2014 02:10 2,0 C 95 % 1009,8 hPa 0,0 l/m 3,7 km/h (1 Bft) O 90 1,3 C 1,6 C 3,2 km/h (1 Bft)
05.03.2014 02:15 2,0 C 95 % 1009,8 hPa 0,0 l/m 3,9 km/h (1 Bft) O-SO 112 1,3 C 1,6 C 2,7 km/h (1 Bft)
05.03.2014 02:20 1,9 C 96 % 1009,8 hPa 0,0 l/m 3,2 km/h (1 Bft) O-NO 67 1,3 C 1,9 C 2,9 km/h (1 Bft)
05.03.2014 02:25 2,0 C 95 % 1009,8 hPa 0,0 l/m 2,4 km/h (1 Bft) SO 135 1,3 C 2,3 C 1,8 km/h (1 Bft)
05.03.2014 02:30 2,0 C 95 % 1009,9 hPa 0,0 l/m 2,6 km/h (1 Bft) SO 135 1,3 C 2,3 C 4,3 km/h (1 Bft)
05.03.2014 02:35 2,0 C 95 % 1009,9 hPa 0,0 l/m 3,4 km/h (1 Bft) S-SO 157 1,3 C 1,9 C 2,4 km/h (1 Bft)
05.03.2014 02:40 2,1 C 95 % 1009,9 hPa 0,0 l/m 4,3 km/h (1 Bft) O-SO 112 1,4 C 1,4 C 6,8 km/h (2 Bft)
05.03.2014 02:45 2,1 C 95 % 1009,9 hPa 0,0 l/m 4,2 km/h (1 Bft) O-SO 112 1,4 C 1,5 C 7,2 km/h (2 Bft)
05.03.2014 02:50 2,1 C 95 % 1009,8 hPa 0,0 l/m 4,0 km/h (1 Bft) O-SO 112 1,4 C 1,7 C 0,0 km/h (0 Bft)
05.03.2014 02:55 2,1 C 95 % 1009,8 hPa 0,0 l/m 3,1 km/h (1 Bft) S 180 1,4 C 2,2 C 2,1 km/h (1 Bft)
05.03.2014 03:00 2,0 C 95 % 1009,8 hPa 0,0 l/m 2,1 km/h (1 Bft) S-SW 202 1,3 C 2,5 C 1,8 km/h (1 Bft)
05.03.2014 03:05 2,0 C 95 % 1009,8 hPa 0,0 l/m 1,8 km/h (1 Bft) S 180 1,3 C 2,4 C 0,0 km/h (0 Bft)
05.03.2014 03:10 1,9 C 96 % 1010,1 hPa 0,0 l/m 0,6 km/h (0 Bft) SO 135 1,3 C 2,4 C 0,0 km/h (0 Bft)
05.03.2014 03:15 1,9 C 96 % 1010,1 hPa 0,0 l/m 1,3 km/h (1 Bft) O-SO 112 1,3 C 2,3 C 3,1 km/h (1 Bft)
05.03.2014 03:20 1,9 C 96 % 1010,1 hPa 0,0 l/m 1,8 km/h (1 Bft) O-SO 112 1,3 C 2,3 C 0,0 km/h (0 Bft)
05.03.2014 03:25 1,9 C 96 % 1010,1 hPa 0,0 l/m 1,9 km/h (1 Bft) S-SO 157 1,3 C 2,3 C 4,5 km/h (1 Bft)
05.03.2014 03:30 1,9 C 96 % 1010,3 hPa 0,0 l/m 2,1 km/h (1 Bft) S 180 1,3 C 2,3 C 2,9 km/h (1 Bft)
05.03.2014 03:35 1,9 C 96 % 1010,3 hPa 0,0 l/m 2,3 km/h (1 Bft) O 90 1,3 C 2,3 C 3,4 km/h (1 Bft)
05.03.2014 03:40 2,0 C 95 % 1010,3 hPa 0,0 l/m 2,9 km/h (1 Bft) S 180 1,3 C 2,1 C 4,0 km/h (1 Bft)
05.03.2014 03:45 2,0 C 95 % 1010,3 hPa 0,0 l/m 3,5 km/h (1 Bft) O-SO 112 1,3 C 1,7 C 3,5 km/h (1 Bft)
05.03.2014 03:50 2,0 C 95 % 1010,4 hPa 0,0 l/m 3,7 km/h (1 Bft) O-SO 112 1,3 C 1,8 C 4,7 km/h (1 Bft)
05.03.2014 03:55 2,0 C 95 % 1010,4 hPa 0,0 l/m 4,2 km/h (1 Bft) SO 135 1,3 C 1,5 C 5,6 km/h (1 Bft)
05.03.2014 04:00 2,0 C 95 % 1010,4 hPa 0,0 l/m 4,3 km/h (1 Bft) S-SO 157 1,3 C 1,4 C 7,9 km/h (2 Bft)
05.03.2014 04:05 2,0 C 95 % 1010,4 hPa 0,0 l/m 4,8 km/h (1 Bft) O 90 1,3 C 1,2 C 6,6 km/h (2 Bft)
05.03.2014 04:10 2,0 C 95 % 1010,6 hPa 0,0 l/m 5,1 km/h (1 Bft) NO 45 1,3 C 1,1 C 5,0 km/h (1 Bft)
05.03.2014 04:15 2,0 C 95 % 1010,6 hPa 0,0 l/m 4,0 km/h (1 Bft) SO 135 1,3 C 1,6 C 5,3 km/h (1 Bft)
05.03.2014 04:20 2,0 C 95 % 1010,6 hPa 0,0 l/m 3,4 km/h (1 Bft) S 180 1,3 C 1,9 C 7,2 km/h (2 Bft)
05.03.2014 04:25 2,0 C 95 % 1010,6 hPa 0,0 l/m 3,9 km/h (1 Bft) S 180 1,3 C 1,7 C 4,5 km/h (1 Bft)
05.03.2014 04:30 2,0 C 95 % 1010,9 hPa 0,0 l/m 4,2 km/h (1 Bft) S 180 1,3 C 1,6 C 3,1 km/h (1 Bft)
05.03.2014 04:35 2,0 C 95 % 1010,9 hPa 0,0 l/m 4,7 km/h (1 Bft) S 180 1,3 C 1,4 C 4,3 km/h (1 Bft)
05.03.2014 04:40 2,0 C 95 % 1010,9 hPa 0,0 l/m 5,5 km/h (1 Bft) S-SO 157 1,3 C 1,1 C 4,3 km/h (1 Bft)
05.03.2014 04:43 2,0 C 95 % 1010,9 hPa 0,0 l/m 6,0 km/h (2 Bft) S-SO 157 1,3 C 0,8 C 7,1 km/h (2 Bft)
05.03.2014 04:45 2,0 C 95 % 1010,9 hPa 0,0 l/m 6,0 km/h (2 Bft) S-SO 157 1,3 C 0,8 C 7,1 km/h (2 Bft)
05.03.2014 04:50 2,0 C 95 % 1011,1 hPa 0,0 l/m 5,1 km/h (1 Bft) O 90 1,3 C 1,2 C 7,6 km/h (2 Bft)
05.03.2014 04:55 2,0 C 95 % 1011,1 hPa 0,0 l/m 4,8 km/h (1 Bft) S-SW 202 1,3 C 1,2 C 6,4 km/h (2 Bft)
05.03.2014 05:00 2,0 C 95 % 1011,1 hPa 0,0 l/m 6,0 km/h (2 Bft) S-SO 157 1,3 C 0,7 C 7,1 km/h (2 Bft)
05.03.2014 05:05 1,9 C 96 % 1011,1 hPa 0,0 l/m 6,0 km/h (2 Bft) S 180 1,3 C 0,6 C 7,6 km/h (2 Bft)
05.03.2014 05:10 1,9 C 95 % 1011,2 hPa 0,0 l/m 5,3 km/h (1 Bft) S-SO 157 1,2 C 0,8 C 4,0 km/h (1 Bft)
05.03.2014 05:15 1,9 C 95 % 1011,2 hPa 0,0 l/m 5,3 km/h (1 Bft) S-SO 157 1,2 C 0,8 C 6,9 km/h (2 Bft)
05.03.2014 05:20 1,9 C 95 % 1011,2 hPa 0,0 l/m 5,5 km/h (1 Bft) S 180 1,2 C 0,7 C 6,4 km/h (2 Bft)
05.03.2014 05:25 1,9 C 95 % 1011,2 hPa 0,0 l/m 5,1 km/h (1 Bft) S 180 1,2 C 0,9 C 3,7 km/h (1 Bft)
05.03.2014 05:30 1,9 C 95 % 1011,5 hPa 0,0 l/m 4,7 km/h (1 Bft) S-SO 157 1,2 C 1,1 C 3,2 km/h (1 Bft)
05.03.2014 05:35 1,9 C 95 % 1011,5 hPa 0,0 l/m 3,9 km/h (1 Bft) SO 135 1,2 C 1,6 C 4,3 km/h (1 Bft)
05.03.2014 05:40 1,8 C 95 % 1011,5 hPa 0,0 l/m 3,1 km/h (1 Bft) S 180 1,1 C 1,9 C 6,4 km/h (2 Bft)
05.03.2014 05:45 1,9 C 96 % 1011,5 hPa 0,0 l/m 3,7 km/h (1 Bft) S-SW 202 1,3 C 1,6 C 6,8 km/h (2 Bft)
05.03.2014 05:50 1,8 C 96 % 1011,6 hPa 0,0 l/m 4,0 km/h (1 Bft) S-SW 202 1,2 C 1,4 C 2,4 km/h (1 Bft)
05.03.2014 05:55 1,8 C 96 % 1011,6 hPa 0,0 l/m 3,9 km/h (1 Bft) S-SO 157 1,2 C 1,5 C 7,7 km/h (2 Bft)
05.03.2014 06:00 1,8 C 96 % 1011,6 hPa 0,0 l/m 4,2 km/h (1 Bft) S-SO 157 1,2 C 1,2 C 3,2 km/h (1 Bft)
05.03.2014 06:05 1,8 C 96 % 1011,6 hPa 0,0 l/m 5,0 km/h (1 Bft) S 180 1,2 C 0,8 C 3,1 km/h (1 Bft)
05.03.2014 06:10 1,8 C 96 % 1011,8 hPa 0,0 l/m 4,2 km/h (1 Bft) S-SW 202 1,2 C 1,2 C 5,0 km/h (1 Bft)
05.03.2014 06:15 1,8 C 96 % 1011,8 hPa 0,0 l/m 3,2 km/h (1 Bft) S-SW 202 1,2 C 1,6 C 2,6 km/h (1 Bft)
05.03.2014 06:20 1,7 C 96 % 1011,8 hPa 0,0 l/m 2,9 km/h (1 Bft) S-SW 202 1,1 C 1,8 C 2,3 km/h (1 Bft)
05.03.2014 06:25 1,7 C 96 % 1011,8 hPa 0,0 l/m 3,1 km/h (1 Bft) S-SO 157 1,1 C 1,7 C 3,2 km/h (1 Bft)
05.03.2014 06:30 1,6 C 96 % 1012,1 hPa 0,0 l/m 3,2 km/h (1 Bft) S 180 1,0 C 1,6 C 4,3 km/h (1 Bft)
05.03.2014 06:35 1,5 C 96 % 1012,1 hPa 0,0 l/m 3,5 km/h (1 Bft) S 180 0,9 C 1,3 C 4,8 km/h (1 Bft)
05.03.2014 06:40 1,5 C 96 % 1012,1 hPa 0,0 l/m 3,1 km/h (1 Bft) S 180 0,9 C 1,6 C 0,0 km/h (0 Bft)
05.03.2014 06:45 1,5 C 96 % 1012,1 hPa 0,0 l/m 2,4 km/h (1 Bft) O-SO 112 0,9 C 1,8 C 4,7 km/h (1 Bft)
05.03.2014 06:50 1,4 C 95 % 1012,2 hPa 0,0 l/m 2,9 km/h (1 Bft) O-SO 112 0,7 C 1,5 C 3,2 km/h (1 Bft)
05.03.2014 06:55 1,4 C 95 % 1012,2 hPa 0,0 l/m 3,4 km/h (1 Bft) O 90 0,7 C 1,1 C 4,3 km/h (1 Bft)
05.03.2014 07:00 1,5 C 96 % 1012,2 hPa 0,0 l/m 3,5 km/h (1 Bft) O-SO 112 0,9 C 1,0 C 5,5 km/h (1 Bft)
05.03.2014 07:05 1,5 C 96 % 1012,2 hPa 0,0 l/m 4,0 km/h (1 Bft) O 90 0,9 C 0,8 C 5,1 km/h (1 Bft)
05.03.2014 07:10 1,4 C 96 % 1012,4 hPa 0,0 l/m 3,2 km/h (1 Bft) O-SO 112 0,8 C 1,3 C 2,7 km/h (1 Bft)
05.03.2014 07:15 1,4 C 96 % 1012,4 hPa 0,0 l/m 2,4 km/h (1 Bft) SO 135 0,8 C 1,7 C 3,9 km/h (1 Bft)
05.03.2014 07:20 1,4 C 96 % 1012,4 hPa 0,0 l/m 2,6 km/h (1 Bft) O-SO 112 0,8 C 1,6 C 2,7 km/h (1 Bft)
05.03.2014 07:25 1,4 C 96 % 1012,4 hPa 0,0 l/m 2,6 km/h (1 Bft) S-SO 157 0,8 C 1,6 C 1,9 km/h (1 Bft)
05.03.2014 07:30 1,2 C 96 % 1012,6 hPa 0,0 l/m 1,9 km/h (1 Bft) SO 135 0,6 C 1,5 C 0,0 km/h (0 Bft)
05.03.2014 07:35 1,2 C 96 % 1012,6 hPa 0,0 l/m 1,4 km/h (1 Bft) O-SO 112 0,6 C 1,4 C 4,3 km/h (1 Bft)
05.03.2014 07:40 1,1 C 96 % 1012,6 hPa 0,0 l/m 1,6 km/h (1 Bft) S-SO 157 0,5 C 1,4 C 2,4 km/h (1 Bft)
05.03.2014 07:45 1,1 C 96 % 1012,6 hPa 0,0 l/m 1,6 km/h (1 Bft) SO 135 0,5 C 1,4 C 1,6 km/h (1 Bft)
05.03.2014 07:50 1,0 C 96 % 1012,9 hPa 0,0 l/m 0,3 km/h (0 Bft) S-SO 157 0,4 C 1,3 C 0,0 km/h (0 Bft)
05.03.2014 07:55 0,9 C 96 % 1012,9 hPa 0,0 l/m 0,2 km/h (0 Bft) SO 135 0,3 C 1,3 C 0,0 km/h (0 Bft)
05.03.2014 08:00 0,8 C 96 % 1012,9 hPa 0,0 l/m 0,2 km/h (0 Bft) NO 45 0,2 C 1,2 C 1,9 km/h (1 Bft)
05.03.2014 08:05 0,8 C 96 % 1012,9 hPa 0,0 l/m 1,0 km/h (0 Bft) O 90 0,2 C 1,2 C 2,6 km/h (1 Bft)
05.03.2014 08:10 0,9 C 96 % 1013,3 hPa 0,0 l/m 2,7 km/h (1 Bft) O 90 0,3 C 0,9 C 3,5 km/h (1 Bft)
05.03.2014 08:15 0,9 C 96 % 1013,3 hPa 0,0 l/m 2,6 km/h (1 Bft) O-NO 67 0,3 C 1,1 C 3,2 km/h (1 Bft)
05.03.2014 08:20 0,9 C 96 % 1013,3 hPa 0,0 l/m 1,9 km/h (1 Bft) O 90 0,3 C 1,2 C 4,3 km/h (1 Bft)
05.03.2014 08:25 1,0 C 96 % 1013,3 hPa 0,0 l/m 1,6 km/h (1 Bft) NO 45 0,4 C 1,2 C 2,6 km/h (1 Bft)
05.03.2014 08:30 1,0 C 96 % 1013,7 hPa 0,0 l/m 1,3 km/h (1 Bft) S 180 0,4 C 1,2 C 5,3 km/h (1 Bft)
05.03.2014 08:35 1,1 C 96 % 1013,7 hPa 0,0 l/m 1,4 km/h (1 Bft) S 180 0,5 C 1,3 C 1,6 km/h (1 Bft)
05.03.2014 08:40 1,0 C 96 % 1013,7 hPa 0,0 l/m 1,4 km/h (1 Bft) O-SO 112 0,4 C 1,4 C 0,0 km/h (0 Bft)
05.03.2014 08:45 1,1 C 96 % 1013,7 hPa 0,0 l/m 0,8 km/h (0 Bft) O 90 0,5 C 1,4 C 0,0 km/h (0 Bft)
05.03.2014 08:50 1,2 C 96 % 1014,1 hPa 0,0 l/m 1,1 km/h (1 Bft) SO 135 0,6 C 1,5 C 1,6 km/h (1 Bft)
05.03.2014 08:55 1,3 C 96 % 1014,1 hPa 0,0 l/m 1,8 km/h (1 Bft) O-SO 112 0,7 C 1,5 C 1,9 km/h (1 Bft)
05.03.2014 09:00 1,4 C 96 % 1014,1 hPa 0,0 l/m 1,8 km/h (1 Bft) SO 135 0,8 C 1,8 C 0,0 km/h (0 Bft)
05.03.2014 09:05 1,5 C 96 % 1014,1 hPa 0,0 l/m 1,9 km/h (1 Bft) S 180 0,9 C 1,9 C 3,2 km/h (1 Bft)
05.03.2014 09:10 1,6 C 96 % 1014,4 hPa 0,0 l/m 1,9 km/h (1 Bft) S 180 1,0 C 2,0 C 2,1 km/h (1 Bft)
05.03.2014 09:15 1,6 C 96 % 1014,4 hPa 0,0 l/m 2,1 km/h (1 Bft) W-SW 247 1,0 C 2,0 C 5,6 km/h (1 Bft)
05.03.2014 09:20 1,6 C 96 % 1014,4 hPa 0,0 l/m 2,1 km/h (1 Bft) S-SO 157 1,0 C 2,1 C 2,3 km/h (1 Bft)
05.03.2014 09:25 1,8 C 96 % 1014,4 hPa 0,0 l/m 2,6 km/h (1 Bft) S 180 1,2 C 2,2 C 4,7 km/h (1 Bft)
05.03.2014 09:30 1,9 C 96 % 1014,7 hPa 0,0 l/m 2,6 km/h (1 Bft) O-NO 67 1,3 C 2,4 C 0,0 km/h (0 Bft)
05.03.2014 09:35 1,9 C 96 % 1014,7 hPa 0,0 l/m 2,1 km/h (1 Bft) O 90 1,3 C 2,5 C 2,7 km/h (1 Bft)
05.03.2014 09:39 2,1 C 96 % 1014,7 hPa 0,0 l/m 1,4 km/h (1 Bft) S 180 1,5 C 2,7 C 2,4 km/h (1 Bft)
05.03.2014 09:40 2,1 C 96 % 1014,7 hPa 0,0 l/m 1,4 km/h (1 Bft) S 180 1,5 C 2,7 C 2,4 km/h (1 Bft)
05.03.2014 09:45 2,2 C 96 % 1014,7 hPa 0,0 l/m 1,9 km/h (1 Bft) O-SO 112 1,6 C 2,8 C 2,4 km/h (1 Bft)
05.03.2014 09:50 2,3 C 96 % 1014,9 hPa 0,0 l/m 2,1 km/h (1 Bft) S 180 1,7 C 3,0 C 5,1 km/h (1 Bft)
05.03.2014 09:55 2,4 C 96 % 1014,9 hPa 0,0 l/m 2,7 km/h (1 Bft) S 180 1,8 C 3,1 C 4,5 km/h (1 Bft)
05.03.2014 10:00 2,5 C 96 % 1014,9 hPa 0,0 l/m 3,5 km/h (1 Bft) S-SO 157 1,9 C 2,8 C 2,6 km/h (1 Bft)
05.03.2014 10:05 2,6 C 96 % 1014,9 hPa 0,0 l/m 3,5 km/h (1 Bft) S 180 2,0 C 3,1 C 7,4 km/h (2 Bft)
05.03.2014 10:10 2,9 C 96 % 1015,1 hPa 0,0 l/m 4,2 km/h (1 Bft) SO 135 2,3 C 2,8 C 3,5 km/h (1 Bft)
05.03.2014 10:15 3,0 C 95 % 1015,1 hPa 0,0 l/m 4,2 km/h (1 Bft) S 180 2,3 C 3,3 C 3,4 km/h (1 Bft)
05.03.2014 10:20 3,2 C 95 % 1015,1 hPa 0,0 l/m 3,1 km/h (1 Bft) O-SO 112 2,5 C 4,3 C 3,5 km/h (1 Bft)
05.03.2014 10:25 3,3 C 95 % 1015,1 hPa 0,0 l/m 2,6 km/h (1 Bft) S 180 2,6 C 4,6 C 2,6 km/h (1 Bft)
05.03.2014 10:30 3,2 C 95 % 1015,5 hPa 0,0 l/m 2,1 km/h (1 Bft) SO 135 2,5 C 4,8 C 5,3 km/h (1 Bft)
05.03.2014 10:35 3,3 C 95 % 1015,5 hPa 0,0 l/m 2,6 km/h (1 Bft) S 180 2,6 C 4,7 C 6,1 km/h (2 Bft)
05.03.2014 10:40 3,6 C 95 % 1015,5 hPa 0,0 l/m 4,3 km/h (1 Bft) S-SW 202 2,9 C 4,1 C 4,8 km/h (1 Bft)
05.03.2014 10:45 3,8 C 95 % 1015,5 hPa 0,0 l/m 5,6 km/h (1 Bft) S 180 3,1 C 3,6 C 7,4 km/h (2 Bft)
05.03.2014 10:50 4,0 C 94 % 1015,6 hPa 0,0 l/m 5,8 km/h (2 Bft) S-SO 157 3,1 C 3,7 C 5,8 km/h (2 Bft)
05.03.2014 10:55 4,0 C 94 % 1015,6 hPa 0,0 l/m 5,5 km/h (1 Bft) S-SO 157 3,1 C 3,9 C 6,1 km/h (2 Bft)
05.03.2014 11:00 4,2 C 93 % 1015,6 hPa 0,0 l/m 4,8 km/h (1 Bft) S-SW 202 3,2 C 4,3 C 3,1 km/h (1 Bft)
05.03.2014 11:05 4,3 C 93 % 1015,6 hPa 0,0 l/m 4,3 km/h (1 Bft) O-NO 67 3,3 C 4,6 C 3,2 km/h (1 Bft)
05.03.2014 11:10 4,5 C 92 % 1016,0 hPa 0,0 l/m 3,9 km/h (1 Bft) NW 315 3,3 C 5,3 C 0,0 km/h (0 Bft)
05.03.2014 11:15 4,7 C 92 % 1016,0 hPa 0,0 l/m 3,4 km/h (1 Bft) SO 135 3,5 C 5,9 C 6,9 km/h (2 Bft)
05.03.2014 11:20 4,9 C 90 % 1016,0 hPa 0,0 l/m 4,0 km/h (1 Bft) W-SW 247 3,4 C 5,7 C 5,3 km/h (1 Bft)
05.03.2014 11:25 5,0 C 89 % 1016,0 hPa 0,0 l/m 5,0 km/h (1 Bft) S-SO 157 3,3 C 5,5 C 6,9 km/h (2 Bft)
05.03.2014 11:30 5,4 C 89 % 1016,3 hPa 0,0 l/m 3,1 km/h (1 Bft) S 180 3,7 C 6,7 C 0,0 km/h (0 Bft)
05.03.2014 11:35 5,6 C 88 % 1016,3 hPa 0,0 l/m 3,1 km/h (1 Bft) W-SW 247 3,8 C 7,0 C 4,2 km/h (1 Bft)
05.03.2014 11:40 6,0 C 87 % 1016,3 hPa 0,0 l/m 2,4 km/h (1 Bft) SW 225 4,0 C 7,5 C 6,1 km/h (2 Bft)
05.03.2014 11:45 6,0 C 85 % 1016,3 hPa 0,0 l/m 3,2 km/h (1 Bft) S-SO 157 3,7 C 7,6 C 7,1 km/h (2 Bft)
05.03.2014 11:50 6,1 C 84 % 1016,4 hPa 0,0 l/m 4,2 km/h (1 Bft) S 180 3,6 C 7,5 C 5,3 km/h (1 Bft)
05.03.2014 11:55 6,4 C 84 % 1016,4 hPa 0,0 l/m 4,3 km/h (1 Bft) S-SW 202 3,9 C 7,7 C 1,9 km/h (1 Bft)
05.03.2014 12:00 6,2 C 80 % 1016,4 hPa 0,0 l/m 4,7 km/h (1 Bft) O-SO 112 3,0 C 7,9 C 10,3 km/h (2 Bft)
05.03.2014 12:05 5,8 C 80 % 1016,4 hPa 0,0 l/m 5,5 km/h (1 Bft) O-NO 67 2,6 C 7,4 C 7,6 km/h (2 Bft)
05.03.2014 12:10 6,5 C 82 % 1016,6 hPa 0,0 l/m 5,0 km/h (1 Bft) SW 225 3,7 C 7,6 C 0,0 km/h (0 Bft)
05.03.2014 12:15 6,7 C 82 % 1016,6 hPa 0,0 l/m 4,0 km/h (1 Bft) W-SW 247 3,8 C 8,3 C 3,9 km/h (1 Bft)
05.03.2014 12:20 6,5 C 83 % 1016,6 hPa 0,0 l/m 3,5 km/h (1 Bft) S 180 3,8 C 8,5 C 2,6 km/h (1 Bft)
05.03.2014 12:25 6,7 C 84 % 1016,6 hPa 0,0 l/m 2,3 km/h (1 Bft) NW 315 4,2 C 8,8 C 0,0 km/h (0 Bft)
05.03.2014 12:30 6,7 C 83 % 1016,8 hPa 0,0 l/m 1,8 km/h (1 Bft) O-SO 112 4,0 C 9,3 C 2,7 km/h (1 Bft)
05.03.2014 12:35 6,5 C 82 % 1016,8 hPa 0,0 l/m 2,6 km/h (1 Bft) W-SW 247 3,7 C 9,2 C 7,4 km/h (2 Bft)
05.03.2014 12:40 6,2 C 82 % 1016,8 hPa 0,0 l/m 3,1 km/h (1 Bft) SO 135 3,4 C 8,6 C 0,0 km/h (0 Bft)
05.03.2014 12:45 6,2 C 81 % 1016,8 hPa 0,0 l/m 2,9 km/h (1 Bft) S 180 3,2 C 8,5 C 4,3 km/h (1 Bft)
05.03.2014 12:50 6,4 C 84 % 1016,7 hPa 0,0 l/m 2,4 km/h (1 Bft) W-SW 247 3,9 C 8,0 C 1,6 km/h (1 Bft)
05.03.2014 12:55 6,7 C 84 % 1016,7 hPa 0,0 l/m 2,9 km/h (1 Bft) S-SO 157 4,2 C 8,0 C 1,9 km/h (1 Bft)
05.03.2014 13:00 7,4 C 83 % 1016,7 hPa 0,0 l/m 2,6 km/h (1 Bft) S 180 4,7 C 8,7 C 2,7 km/h (1 Bft)
05.03.2014 13:05 7,3 C 80 % 1016,7 hPa 0,0 l/m 3,4 km/h (1 Bft) O 90 4,1 C 9,0 C 3,5 km/h (1 Bft)
05.03.2014 13:10 7,1 C 80 % 1016,7 hPa 0,0 l/m 4,2 km/h (1 Bft) S-SW 202 3,9 C 9,2 C 4,5 km/h (1 Bft)
05.03.2014 13:15 7,0 C 79 % 1016,7 hPa 0,0 l/m 3,9 km/h (1 Bft) S-SO 157 3,6 C 9,2 C 6,1 km/h (2 Bft)
05.03.2014 13:20 6,8 C 81 % 1016,7 hPa 0,0 l/m 4,2 km/h (1 Bft) O-NO 67 3,8 C 8,9 C 5,3 km/h (1 Bft)
05.03.2014 13:25 6,4 C 81 % 1016,7 hPa 0,0 l/m 4,2 km/h (1 Bft) O-SO 112 3,4 C 8,7 C 5,3 km/h (1 Bft)
05.03.2014 13:30 6,5 C 82 % 1016,9 hPa 0,0 l/m 2,7 km/h (1 Bft) W-SW 247 3,7 C 8,6 C 1,8 km/h (1 Bft)
05.03.2014 13:35 6,3 C 82 % 1016,9 hPa 0,0 l/m 2,1 km/h (1 Bft) S 180 3,5 C 8,3 C 3,7 km/h (1 Bft)
05.03.2014 13:40 6,1 C 84 % 1016,9 hPa 0,0 l/m 1,8 km/h (1 Bft) W-SW 247 3,6 C 7,7 C 3,5 km/h (1 Bft)
05.03.2014 13:45 5,8 C 85 % 1016,9 hPa 0,0 l/m 2,1 km/h (1 Bft) O-SO 112 3,5 C 7,2 C 1,6 km/h (1 Bft)
05.03.2014 13:50 5,5 C 85 % 1016,9 hPa 0,0 l/m 3,1 km/h (1 Bft) W 270 3,2 C 6,4 C 2,9 km/h (1 Bft)
05.03.2014 13:55 5,4 C 86 % 1016,9 hPa 0,0 l/m 2,3 km/h (1 Bft) W-NW 292 3,3 C 5,9 C 2,1 km/h (1 Bft)
05.03.2014 14:00 5,2 C 83 % 1016,9 hPa 0,0 l/m 0,8 km/h (0 Bft) W 270 2,6 C 5,6 C 0,0 km/h (0 Bft)
05.03.2014 14:05 5,1 C 84 % 1016,9 hPa 0,0 l/m 1,3 km/h (1 Bft) W-SW 247 2,6 C 5,4 C 7,1 km/h (2 Bft)
05.03.2014 14:10 4,6 C 85 % 1016,5 hPa 0,0 l/m 5,1 km/h (1 Bft) S-SW 202 2,3 C 4,2 C 6,4 km/h (2 Bft)
05.03.2014 14:15 4,0 C 85 % 1016,5 hPa 0,0 l/m 6,8 km/h (2 Bft) S-SW 202 1,7 C 2,5 C 7,2 km/h (2 Bft)
05.03.2014 14:20 3,1 C 86 % 1016,5 hPa 0,0 l/m 6,0 km/h (2 Bft) W-SW 247 1,0 C 2,0 C 10,1 km/h (2 Bft)
05.03.2014 14:25 2,9 C 87 % 1016,5 hPa 0,0 l/m 5,6 km/h (1 Bft) W-SW 247 1,0 C 1,7 C 6,8 km/h (2 Bft)
05.03.2014 14:30 2,6 C 88 % 1017,6 hPa 0,0 l/m 6,3 km/h (2 Bft) S 180 0,8 C 1,0 C 6,6 km/h (2 Bft)
05.03.2014 14:35 2,4 C 88 % 1017,6 hPa 0,0 l/m 6,1 km/h (2 Bft) O-SO 112 0,6 C 0,9 C 6,4 km/h (2 Bft)
05.03.2014 14:39 2,5 C 89 % 1017,6 hPa 0,0 l/m 6,3 km/h (2 Bft) O 90 0,9 C 0,6 C 5,0 km/h (1 Bft)
05.03.2014 14:40 2,5 C 89 % 1017,6 hPa 0,0 l/m 6,3 km/h (2 Bft) O 90 0,9 C 0,6 C 5,0 km/h (1 Bft)
05.03.2014 14:45 2,7 C 90 % 1017,6 hPa 0,0 l/m 6,1 km/h (2 Bft) O-SO 112 1,2 C 0,9 C 4,5 km/h (1 Bft)
05.03.2014 14:50 3,3 C 90 % 1017,3 hPa 0,0 l/m 5,1 km/h (1 Bft) O-SO 112 1,8 C 1,9 C 5,3 km/h (1 Bft)
05.03.2014 14:55 3,6 C 90 % 1017,3 hPa 0,0 l/m 4,3 km/h (1 Bft) O-SO 112 2,1 C 2,8 C 3,9 km/h (1 Bft)
05.03.2014 15:00 4,2 C 91 % 1017,3 hPa 0,0 l/m 2,7 km/h (1 Bft) O-SO 112 2,9 C 4,5 C 3,5 km/h (1 Bft)
05.03.2014 15:05 4,1 C 90 % 1017,3 hPa 0,0 l/m 2,7 km/h (1 Bft) O-SO 112 2,6 C 5,1 C 7,4 km/h (2 Bft)
05.03.2014 15:10 4,4 C 89 % 1017,3 hPa 0,0 l/m 4,3 km/h (1 Bft) NO 45 2,7 C 5,3 C 6,1 km/h (2 Bft)
05.03.2014 15:15 4,7 C 88 % 1017,3 hPa 0,0 l/m 4,3 km/h (1 Bft) S 180 2,9 C 5,9 C 4,3 km/h (1 Bft)
05.03.2014 15:20 4,6 C 86 % 1017,3 hPa 0,0 l/m 3,9 km/h (1 Bft) SO 135 2,5 C 7,3 C 6,4 km/h (2 Bft)
05.03.2014 15:25 4,1 C 85 % 1017,3 hPa 0,0 l/m 4,2 km/h (1 Bft) SO 135 1,8 C 6,9 C 6,9 km/h (2 Bft)
05.03.2014 15:30 3,9 C 86 % 1017,6 hPa 0,0 l/m 4,5 km/h (1 Bft) S 180 1,8 C 5,7 C 5,6 km/h (1 Bft)
05.03.2014 15:35 3,9 C 87 % 1017,6 hPa 0,0 l/m 4,3 km/h (1 Bft) O 90 1,9 C 5,2 C 6,0 km/h (2 Bft)
05.03.2014 15:40 4,0 C 86 % 1017,6 hPa 0,0 l/m 3,7 km/h (1 Bft) S 180 1,9 C 5,4 C 5,0 km/h (1 Bft)
05.03.2014 15:45 4,4 C 87 % 1017,6 hPa 0,0 l/m 3,4 km/h (1 Bft) NO 45 2,4 C 6,2 C 2,9 km/h (1 Bft)
05.03.2014 15:50 4,5 C 88 % 1017,8 hPa 0,0 l/m 2,9 km/h (1 Bft) S 180 2,7 C 6,4 C 2,7 km/h (1 Bft)
05.03.2014 15:55 4,4 C 87 % 1017,8 hPa 0,0 l/m 3,4 km/h (1 Bft) O-SO 112 2,4 C 6,2 C 7,2 km/h (2 Bft)
05.03.2014 16:00 4,5 C 87 % 1017,8 hPa 0,0 l/m 4,5 km/h (1 Bft) S 180 2,5 C 5,7 C 5,0 km/h (1 Bft)
05.03.2014 16:05 4,7 C 87 % 1017,8 hPa 0,0 l/m 4,7 km/h (1 Bft) O-SO 112 2,7 C 5,7 C 7,4 km/h (2 Bft)
05.03.2014 16:10 4,6 C 86 % 1017,9 hPa 0,0 l/m 4,7 km/h (1 Bft) S-SO 157 2,5 C 6,3 C 6,0 km/h (2 Bft)
05.03.2014 16:15 4,5 C 86 % 1017,9 hPa 0,0 l/m 4,7 km/h (1 Bft) S 180 2,4 C 6,2 C 0,0 km/h (0 Bft)
05.03.2014 16:20 4,6 C 87 % 1017,9 hPa 0,0 l/m 3,4 km/h (1 Bft) S-SO 157 2,6 C 6,7 C 0,0 km/h (0 Bft)
05.03.2014 16:25 4,6 C 88 % 1017,9 hPa 0,0 l/m 2,4 km/h (1 Bft) S 180 2,8 C 7,1 C 4,0 km/h (1 Bft)
05.03.2014 16:30 4,1 C 88 % 1017,9 hPa 0,0 l/m 1,4 km/h (1 Bft) NO 45 2,3 C 6,8 C 0,0 km/h (0 Bft)
05.03.2014 16:35 3,8 C 89 % 1017,9 hPa 0,0 l/m 1,1 km/h (1 Bft) W-NW 292 2,2 C 6,8 C 0,0 km/h (0 Bft)
05.03.2014 16:40 3,4 C 89 % 1017,9 hPa 0,0 l/m 0,8 km/h (0 Bft) SW 225 1,8 C 6,0 C 0,0 km/h (0 Bft)
05.03.2014 16:45 3,3 C 90 % 1017,9 hPa 0,0 l/m 0,5 km/h (0 Bft) SO 135 1,8 C 5,5 C 0,0 km/h (0 Bft)
05.03.2014 16:50 3,2 C 90 % 1018,0 hPa 0,0 l/m 0,2 km/h (0 Bft) NO 45 1,7 C 5,0 C 1,9 km/h (1 Bft)
05.03.2014 16:55 3,2 C 91 % 1018,0 hPa 0,0 l/m 0,3 km/h (0 Bft) O-SO 112 1,9 C 4,7 C 0,0 km/h (0 Bft)
05.03.2014 17:00 3,4 C 91 % 1018,0 hPa 0,0 l/m 0,3 km/h (0 Bft) NO 45 2,1 C 4,6 C 0,0 km/h (0 Bft)
05.03.2014 17:05 3,5 C 91 % 1018,0 hPa 0,0 l/m 0,3 km/h (0 Bft) W-SW 247 2,2 C 4,6 C 1,8 km/h (1 Bft)
05.03.2014 17:10 3,4 C 92 % 1018,1 hPa 0,0 l/m 0,5 km/h (0 Bft) NO 45 2,2 C 4,5 C 2,1 km/h (1 Bft)
05.03.2014 17:15 3,4 C 92 % 1018,1 hPa 0,0 l/m 1,0 km/h (0 Bft) O-NO 67 2,2 C 4,3 C 0,0 km/h (0 Bft)
05.03.2014 17:20 3,3 C 92 % 1018,1 hPa 0,0 l/m 0,8 km/h (0 Bft) W-SW 247 2,1 C 4,2 C 2,3 km/h (1 Bft)
05.03.2014 17:25 3,3 C 92 % 1018,1 hPa 0,0 l/m 1,1 km/h (1 Bft) S-SO 157 2,1 C 4,1 C 2,1 km/h (1 Bft)
05.03.2014 17:30 3,3 C 93 % 1018,4 hPa 0,0 l/m 3,1 km/h (1 Bft) S 180 2,3 C 3,9 C 6,0 km/h (2 Bft)
05.03.2014 17:35 3,3 C 92 % 1018,4 hPa 0,0 l/m 4,5 km/h (1 Bft) W-SW 247 2,1 C 3,0 C 9,8 km/h (2 Bft)
05.03.2014 17:40 2,5 C 93 % 1018,4 hPa 0,0 l/m 6,4 km/h (2 Bft) W 270 1,5 C 1,5 C 12,9 km/h (3 Bft)
05.03.2014 17:45 2,2 C 93 % 1018,4 hPa 0,0 l/m 6,4 km/h (2 Bft) W-SW 247 1,2 C 0,9 C 4,7 km/h (1 Bft)
05.03.2014 17:50 1,9 C 93 % 1019,2 hPa 0,0 l/m 4,3 km/h (1 Bft) S 180 0,9 C 1,2 C 3,9 km/h (1 Bft)
05.03.2014 17:55 1,7 C 93 % 1019,2 hPa 0,0 l/m 3,7 km/h (1 Bft) W 270 0,7 C 1,2 C 6,4 km/h (2 Bft)
05.03.2014 18:00 1,5 C 93 % 1019,2 hPa 0,0 l/m 2,9 km/h (1 Bft) W-NW 292 0,5 C 1,4 C 2,1 km/h (1 Bft)
05.03.2014 18:05 1,4 C 93 % 1019,2 hPa 0,0 l/m 3,1 km/h (1 Bft) S 180 0,4 C 1,1 C 6,1 km/h (2 Bft)
05.03.2014 18:10 1,0 C 93 % 1019,6 hPa 0,0 l/m 2,6 km/h (1 Bft) NO 45 -0,0 C 1,2 C 1,9 km/h (1 Bft)
05.03.2014 18:15 0,9 C 93 % 1019,6 hPa 0,0 l/m 2,3 km/h (1 Bft) N 360 -0,1 C 1,1 C 2,7 km/h (1 Bft)
05.03.2014 18:20 0,9 C 94 % 1019,6 hPa 0,0 l/m 2,9 km/h (1 Bft) O-SO 112 0,0 C 0,8 C 7,1 km/h (2 Bft)
05.03.2014 18:25 0,9 C 94 % 1019,6 hPa 0,0 l/m 4,8 km/h (1 Bft) O-SO 112 0,0 C -0,3 C 11,9 km/h (2 Bft)
05.03.2014 18:30 1,0 C 94 % 1019,3 hPa 0,0 l/m 8,5 km/h (2 Bft) O 90 0,1 C -3,8 C 13,0 km/h (3 Bft)
05.03.2014 18:35 1,0 C 94 % 1019,3 hPa 0,0 l/m 7,9 km/h (2 Bft) SO 135 0,1 C -2,9 C 4,3 km/h (1 Bft)
05.03.2014 18:40 1,0 C 94 % 1019,3 hPa 0,0 l/m 5,0 km/h (1 Bft) S 180 0,1 C -0,2 C 2,9 km/h (1 Bft)
05.03.2014 18:45 1,0 C 95 % 1019,3 hPa 0,0 l/m 4,0 km/h (1 Bft) O-SO 112 0,3 C 0,3 C 0,0 km/h (0 Bft)
05.03.2014 18:50 1,0 C 95 % 1019,7 hPa 0,0 l/m 1,8 km/h (1 Bft) S 180 0,3 C 1,2 C 2,1 km/h (1 Bft)
05.03.2014 18:55 1,0 C 95 % 1019,7 hPa 0,0 l/m 1,8 km/h (1 Bft) S-SW 202 0,3 C 1,2 C 4,0 km/h (1 Bft)
05.03.2014 19:00 1,0 C 95 % 1019,7 hPa 0,0 l/m 2,4 km/h (1 Bft) W-SW 247 0,3 C 1,2 C 5,1 km/h (1 Bft)
05.03.2014 19:05 0,9 C 95 % 1019,7 hPa 0,0 l/m 2,3 km/h (1 Bft) S-SW 202 0,2 C 1,2 C 2,1 km/h (1 Bft)
05.03.2014 19:10 0,9 C 95 % 1020,1 hPa 0,0 l/m 2,6 km/h (1 Bft) SO 135 0,2 C 1,1 C 4,2 km/h (1 Bft)
05.03.2014 19:15 0,8 C 95 % 1020,1 hPa 0,0 l/m 2,6 km/h (1 Bft) S 180 0,1 C 1,1 C 3,1 km/h (1 Bft)
05.03.2014 19:20 0,9 C 96 % 1020,1 hPa 0,0 l/m 2,1 km/h (1 Bft) O 90 0,3 C 1,1 C 0,0 km/h (0 Bft)
05.03.2014 19:25 0,9 C 96 % 1020,1 hPa 0,0 l/m 2,3 km/h (1 Bft) O 90 0,3 C 1,1 C 5,6 km/h (1 Bft)
05.03.2014 19:30 1,0 C 95 % 1020,2 hPa 0,0 l/m 3,5 km/h (1 Bft) O 90 0,3 C 0,6 C 6,4 km/h (2 Bft)
05.03.2014 19:35 1,0 C 96 % 1020,2 hPa 0,0 l/m 4,5 km/h (1 Bft) O 90 0,4 C 0,0 C 3,7 km/h (1 Bft)
05.03.2014 19:39 1,1 C 96 % 1020,2 hPa 0,0 l/m 4,2 km/h (1 Bft) O 90 0,5 C 0,2 C 5,3 km/h (1 Bft)
05.03.2014 19:40 1,1 C 96 % 1020,2 hPa 0,0 l/m 4,2 km/h (1 Bft) O 90 0,5 C 0,2 C 5,3 km/h (1 Bft)
05.03.2014 19:45 1,1 C 96 % 1020,2 hPa 0,0 l/m 3,5 km/h (1 Bft) NO 45 0,5 C 0,6 C 4,0 km/h (1 Bft)
05.03.2014 19:50 1,1 C 96 % 1020,2 hPa 0,0 l/m 3,4 km/h (1 Bft) O 90 0,5 C 0,7 C 6,0 km/h (2 Bft)
05.03.2014 19:55 1,1 C 96 % 1020,2 hPa 0,0 l/m 3,9 km/h (1 Bft) O-SO 112 0,5 C 0,6 C 6,1 km/h (2 Bft)
05.03.2014 20:00 1,2 C 96 % 1020,2 hPa 0,0 l/m 5,3 km/h (1 Bft) O 90 0,6 C -0,2 C 6,0 km/h (2 Bft)
05.03.2014 20:05 1,1 C 96 % 1020,2 hPa 0,0 l/m 5,3 km/h (1 Bft) SO 135 0,5 C -0,2 C 5,6 km/h (1 Bft)
05.03.2014 20:10 1,1 C 96 % 1020,4 hPa 0,0 l/m 5,0 km/h (1 Bft) O-SO 112 0,5 C 0,0 C 5,5 km/h (1 Bft)
05.03.2014 20:15 1,1 C 96 % 1020,4 hPa 0,0 l/m 4,7 km/h (1 Bft) SO 135 0,5 C 0,1 C 6,4 km/h (2 Bft)
05.03.2014 20:20 1,1 C 96 % 1020,4 hPa 0,0 l/m 4,5 km/h (1 Bft) O-SO 112 0,5 C 0,1 C 6,1 km/h (2 Bft)
05.03.2014 20:25 1,0 C 96 % 1020,4 hPa 0,0 l/m 5,0 km/h (1 Bft) O-SO 112 0,4 C -0,2 C 5,3 km/h (1 Bft)
05.03.2014 20:30 0,9 C 96 % 1020,9 hPa 0,0 l/m 6,0 km/h (2 Bft) O 90 0,3 C -0,6 C 7,6 km/h (2 Bft)
05.03.2014 20:35 0,9 C 96 % 1020,9 hPa 0,0 l/m 6,3 km/h (2 Bft) O-SO 112 0,3 C -0,9 C 7,1 km/h (2 Bft)
05.03.2014 20:40 0,8 C 96 % 1020,9 hPa 0,0 l/m 6,0 km/h (2 Bft) O 90 0,2 C -0,7 C 7,1 km/h (2 Bft)
05.03.2014 20:45 0,8 C 96 % 1020,9 hPa 0,0 l/m 5,5 km/h (1 Bft) NO 45 0,2 C -0,6 C 5,5 km/h (1 Bft)
05.03.2014 20:50 0,8 C 97 % 1020,9 hPa 0,0 l/m 4,8 km/h (1 Bft) O 90 0,4 C -0,3 C 6,0 km/h (2 Bft)
05.03.2014 20:55 0,8 C 97 % 1020,9 hPa 0,0 l/m 4,8 km/h (1 Bft) O-SO 112 0,4 C -0,3 C 7,4 km/h (2 Bft)
05.03.2014 21:00 0,9 C 97 % 1020,9 hPa 0,0 l/m 6,0 km/h (2 Bft) O 90 0,5 C -0,6 C 7,2 km/h (2 Bft)
05.03.2014 21:05 0,9 C 97 % 1020,9 hPa 0,0 l/m 6,4 km/h (2 Bft) O 90 0,5 C -0,8 C 9,7 km/h (2 Bft)
05.03.2014 21:10 0,9 C 97 % 1020,8 hPa 0,0 l/m 5,1 km/h (1 Bft) O-SO 112 0,5 C -0,2 C 2,6 km/h (1 Bft)
05.03.2014 21:15 0,9 C 97 % 1020,8 hPa 0,0 l/m 4,7 km/h (1 Bft) O 90 0,5 C -0,1 C 6,9 km/h (2 Bft)
05.03.2014 21:20 0,9 C 97 % 1020,8 hPa 0,0 l/m 3,7 km/h (1 Bft) O-NO 67 0,5 C 0,4 C 1,9 km/h (1 Bft)
05.03.2014 21:25 0,9 C 97 % 1020,8 hPa 0,0 l/m 3,5 km/h (1 Bft) O-NO 67 0,5 C 0,6 C 5,3 km/h (1 Bft)
05.03.2014 21:30 1,0 C 97 % 1021,0 hPa 0,0 l/m 4,3 km/h (1 Bft) O-NO 67 0,6 C 0,2 C 7,4 km/h (2 Bft)
05.03.2014 21:35 1,0 C 97 % 1021,0 hPa 0,0 l/m 4,0 km/h (1 Bft) S 180 0,6 C 0,3 C 0,0 km/h (0 Bft)
05.03.2014 21:40 1,0 C 97 % 1021,0 hPa 0,0 l/m 1,9 km/h (1 Bft) O-SO 112 0,6 C 1,3 C 3,2 km/h (1 Bft)
05.03.2014 21:45 1,0 C 97 % 1021,0 hPa 0,0 l/m 1,6 km/h (1 Bft) O-NO 67 0,6 C 1,3 C 3,9 km/h (1 Bft)
05.03.2014 21:50 1,1 C 97 % 1021,2 hPa 0,0 l/m 3,2 km/h (1 Bft) NO 45 0,7 C 0,8 C 4,5 km/h (1 Bft)
05.03.2014 21:55 1,1 C 97 % 1021,2 hPa 0,0 l/m 3,9 km/h (1 Bft) NO 45 0,7 C 0,4 C 5,5 km/h (1 Bft)
05.03.2014 22:00 1,1 C 97 % 1021,2 hPa 0,0 l/m 4,7 km/h (1 Bft) O-NO 67 0,7 C 0,1 C 4,8 km/h (1 Bft)
05.03.2014 22:05 1,2 C 97 % 1021,2 hPa 0,0 l/m 4,2 km/h (1 Bft) NO 45 0,8 C 0,4 C 3,1 km/h (1 Bft)
05.03.2014 22:10 1,1 C 97 % 1021,1 hPa 0,0 l/m 3,5 km/h (1 Bft) O 90 0,7 C 0,7 C 5,0 km/h (1 Bft)
05.03.2014 22:15 1,2 C 97 % 1021,1 hPa 0,0 l/m 4,2 km/h (1 Bft) NO 45 0,8 C 0,5 C 4,3 km/h (1 Bft)
05.03.2014 22:20 1,2 C 97 % 1021,1 hPa 0,0 l/m 2,9 km/h (1 Bft) S 180 0,8 C 1,2 C 0,0 km/h (0 Bft)
05.03.2014 22:25 1,2 C 97 % 1021,1 hPa 0,0 l/m 1,9 km/h (1 Bft) O-NO 67 0,8 C 1,5 C 5,8 km/h (2 Bft)
05.03.2014 22:30 1,1 C 97 % 1021,9 hPa 0,0 l/m 2,3 km/h (1 Bft) NO 45 0,7 C 1,5 C 0,0 km/h (0 Bft)
05.03.2014 22:35 1,1 C 97 % 1021,9 hPa 0,0 l/m 1,9 km/h (1 Bft) W-SW 247 0,7 C 1,4 C 0,0 km/h (0 Bft)
05.03.2014 22:40 1,0 C 97 % 1021,9 hPa 0,0 l/m 1,0 km/h (0 Bft) S-SW 202 0,6 C 1,3 C 2,7 km/h (1 Bft)
05.03.2014 22:45 1,0 C 97 % 1021,9 hPa 0,0 l/m 1,6 km/h (1 Bft) SO 135 0,6 C 1,3 C 1,6 km/h (1 Bft)
05.03.2014 22:50 1,1 C 97 % 1021,6 hPa 0,0 l/m 2,9 km/h (1 Bft) O 90 0,7 C 0,9 C 4,0 km/h (1 Bft)
05.03.2014 22:55 1,1 C 97 % 1021,6 hPa 0,0 l/m 3,4 km/h (1 Bft) O-NO 67 0,7 C 0,7 C 3,5 km/h (1 Bft)
05.03.2014 23:00 1,1 C 97 % 1021,6 hPa 0,0 l/m 3,7 km/h (1 Bft) NO 45 0,7 C 0,7 C 1,8 km/h (1 Bft)
05.03.2014 23:05 1,1 C 97 % 1021,6 hPa 0,0 l/m 3,1 km/h (1 Bft) O 90 0,7 C 1,0 C 5,5 km/h (1 Bft)
05.03.2014 23:10 1,1 C 97 % 1021,7 hPa 0,0 l/m 3,1 km/h (1 Bft) O 90 0,7 C 1,0 C 3,9 km/h (1 Bft)
05.03.2014 23:15 1,1 C 97 % 1021,7 hPa 0,0 l/m 4,2 km/h (1 Bft) O 90 0,7 C 0,4 C 4,3 km/h (1 Bft)
05.03.2014 23:20 1,0 C 97 % 1021,7 hPa 0,0 l/m 3,9 km/h (1 Bft) NO 45 0,6 C 0,4 C 2,7 km/h (1 Bft)
05.03.2014 23:25 1,0 C 97 % 1021,7 hPa 0,0 l/m 3,7 km/h (1 Bft) O-NO 67 0,6 C 0,5 C 5,5 km/h (1 Bft)
05.03.2014 23:30 1,0 C 97 % 1021,8 hPa 0,0 l/m 4,3 km/h (1 Bft) NO 45 0,6 C 0,1 C 5,1 km/h (1 Bft)
05.03.2014 23:35 1,0 C 97 % 1021,8 hPa 0,0 l/m 5,0 km/h (1 Bft) NO 45 0,6 C -0,2 C 4,2 km/h (1 Bft)
05.03.2014 23:40 1,1 C 97 % 1021,8 hPa 0,0 l/m 5,5 km/h (1 Bft) NO 45 0,7 C -0,3 C 6,6 km/h (2 Bft)
05.03.2014 23:45 1,1 C 97 % 1021,8 hPa 0,0 l/m 4,7 km/h (1 Bft) N-NO 22 0,7 C 0,0 C 0,0 km/h (0 Bft)
05.03.2014 23:50 1,1 C 97 % 1021,8 hPa 0,0 l/m 3,4 km/h (1 Bft) O 90 0,7 C 0,7 C 5,8 km/h (2 Bft)
05.03.2014 23:55 1,0 C 97 % 1021,8 hPa 0,0 l/m 3,7 km/h (1 Bft) NO 45 0,6 C 0,5 C 5,3 km/h (1 Bft)
_ Min-Zeit 20:55 13:15 00:05 - 16:50 - - 18:15 18:30 23:45
Minimum _ 0,8 C 79 % 1008,8 hPa - 0,2 km/h (0 Bft) - - -0,1 C -3,8 C 0,0 km/h (0 Bft)
_ Max-Zeit 13:00 23:55 22:45 23:55 18:30 - - 13:00 12:30 18:30
Maximum _ 7,4 C 97 % 1021,9 hPa 0,0 l/m 8,5 km/h
O (2 Bft)
- - 4,7 C 9,3 C 13,0 km/h
O (3 Bft)
Durchschnitt _ 2,5 C 93 % 1015,5 hPa #0,0 l/m 3,5 km/h (1 Bft) S - 1,5 C 2,5 C 4,2 km/h (1 Bft)